Location: Newark
(50.0306°N, 2.3272°E)
Time: 01:49:05
(UTC+00:00)

Vanguard 1 Rocket - Pass Details

Date: 15 December 2019
Orbit: 650 x 4226 km, 34.3° (Epoch: 25 January)

Event Time Altitude Azimuth Distance (km) Brightness Sun altitude
Rises 20:03:30 0° 238° (WSW) 8,248 12.8 -39.5°
Reaches altitude 10° 20:10:12 10° 232° (SW) 6,888 12.2 -40.6°
Enters shadow 20:27:17 39° 181° (S) 3,612 10.1 -43.2°
Maximum altitude 20:28:15 39° 174° (S) 3,510 - -43.4°
Drops below altitude 10° 20:38:42 10° 111° (ESE) 4,073 - -45.0°
Sets 20:41:31 0° 102° (ESE) 4,694 - -45.4°
